Temp
-12 -12 -12 -12 -12 -12 -12 -12 -12 -11 -11 -11 -11 -11 -11 -10 -10 -10 -9 -10 -10 -10 -9 -9 -9 -9 -9 -9 -10 -8 -10 -9 -10 -10 -10 -11 -10 -10 -11 -11 -11 -11 -11 -13 -13 -13 -13 -12 -13 -13 -12 -12 -12 -11
-13 -12 -12 -12 -12 -12 -12 -12 -12 -12 -12 -11 -11 -11 -11 -10 -10 -11 -10 -10 -10 -10 -10 -9 -9 -9 -9 -9 -9 -9 -9 -10 -10 -10 -10 -10 -11 -10 -10 -11 -11 -11 -12 -11 -13 -13 -12 -12 -13 -12 -12 -12 -12 -11
-13 -13 -12 -12 -12 -12 -12 -12 -12 -12 -12 -12 -11 -11 -11 -11 -11 -11 -11 -10 -10 -10 -10 -10 -9 -9 -9 -9 -9 -9 -9 -10 -10 -10 -10 -10 -10 -11 -10 -11 -11 -11 -11 -11 -11 -11 -12 -13 -13 -13 -12 -11 -11 -11
-13 -13 -13 -13 -12 -12 -12 -12 -12 -12 -12 -12 -12 -12 -11 -11 -11 -11 -11 -11 -10 -10 -10 -10 -10 -10 -10 -10 -10 -10 -10 -10 -10 -10 -10 -10 -10 -11 -11 -11 -11 -12 -12 -12 -12 -12 -13 -13 -13 -13 -12 -12 -11 -12
-13 -13 -13 -13 -13 -12 -12 -12 -12 -12 -12 -12 -12 -12 -12 -11 -11 -11 -11 -11 -11 -11 -10 -10 -10 -10 -10 -10 -10 -10 -10 -10 -10 -10 -10 -11 -11 -11 -11 -11 -12 -13 -13 -13 -13 -13 -13 -12 -13 -12 -12 -12 -12 -12
-14 -13 -13 -13 -13 -12 -12 -12 -12 -12 -12 -12 -12 -12 -12 -11 -11 -11 -11 -11 -11 -11 -11 -10 -10 -10 -10 -10 -10 -10 -10 -10 -10 -11 -11 -11 -12 -11 -11 -12 -13 -12 -12 -13 -13 -13 -13 -13 -13 -13 -13 -13 -13 -13
-14 -13 -13 -13 -12 -13 -12 -12 -12 -12 -12 -12 -12 -12 -11 -11 -11 -11 -11 -11 -11 -11 -11 -11 -11 -11 -11 -11 -11 -11 -11 -11 -11 -11 -12 -12 -12 -12 -12 -12 -12 -13 -13 -12 -13 -13 -12 -13 -13 -13 -13 -13 -13 -13
-14 -14 -14 -13 -13 -12 -12 -12 -12 -12 -12 -12 -12 -12 -11 -11 -11 -11 -11 -11 -11 -11 -11 -11 -11 -11 -11 -11 -11 -11 -11 -11 -11 -11 -12 -12 -12 -12 -12 -12 -12 -13 -13 -13 -13 -13 -13 -13 -13 -14 -14 -13 -13 -13
-14 -14 -14 -13 -13 -13 -12 -12 -12 -12 -12 -12 -12 -12 -12 -12 -11 -11 -11 -11 -11 -11 -11 -11 -11 -11 -12 -11 -11 -11 -11 -11 -11 -12 -12 -12 -12 -12 -12 -12 -12 -12 -13 -13 -13 -12 -13 -14 -14 -14 -14 -14 -13 -13
-15 -14 -14 -14 -13 -13 -13 -12 -12 -12 -12 -12 -12 -12 -12 -12 -12 -12 -12 -11 -11 -11 -12 -12 -12 -11 -12 -11 -11 -11 -11 -12 -12 -12 -13 -13 -13 -13 -12 -12 -12 -13 -12 -12 -12 -13 -13 -13 -13 -12 -15 -14 -13 -13
-15 -15 -15 -14 -14 -14 -14 -13 -13 -13 -13 -12 -12 -12 -12 -12 -12 -12 -12 -12 -12 -12 -12 -12 -12 -12 -12 -12 -12 -12 -12 -12 -12 -12 -12 -13 -13 -13 -13 -12 -12 -13 -13 -13 -13 -13 -13 -13 -14 -14 -13 -9 -13 -13
-15 -15 -15 -15 -15 -14 -14 -14 -14 -13 -13 -13 -12 -12 -12 -12 -12 -12 -12 -12 -12 -12 -12 -12 -12 -12 -12 -12 -12 -12 -12 -12 -12 -13 -13 -13 -13 -13 -13 -13 -13 -13 -13 -13 -13 -13 -14 -14 -13 -13 -12 -13 -13 -14
-16 -15 -15 -15 -15 -15 -14 -14 -14 -13 -13 -13 -13 -13 -13 -13 -12 -12 -12 -12 -12 -12 -12 -12 -12 -12 -12 -12 -13 -13 -12 -13 -13 -13 -13 -13 -14 -14 -14 -13 -13 -13 -13 -13 -13 -13 -14 -14 -14 -14 -14 -14 -14 -14
-16 -15 -15 -15 -15 -15 -15 -14 -14 -14 -14 -13 -13 -13 -13 -13 -13 -13 -13 -12 -12 -12 -12 -13 -12 -13 -13 -13 -13 -13 -13 -13 -13 -13 -14 -14 -14 -14 -14 -13 -13 -13 -13 -13 -13 -13 -14 -14 -15 -15 -15 -14 -14 -13
-16 -15 -15 -15 -15 -15 -15 -15 -14 -14 -14 -13 -13 -13 -13 -13 -13 -13 -12 -12 -13 -13 -13 -13 -13 -13 -13 -14 -13 -14 -14 -14 -14 -14 -14 -14 -14 -13 -13 -13 -13 -12 -13 -13 -13 -13 -14 -14 -14 -15 -14 -14 -14 -13
-16 -15 -15 -15 -15 -15 -15 -15 -15 -14 -14 -13 -13 -13 -13 -13 -13 -13 -12 -13 -13 -13 -13 -13 -13 -14 -14 -14 -14 -14 -14 -14 -14 -14 -14 -14 -14 -13 -13 -13 -13 -13 -13 -13 -13 -14 -14 -14 -14 -14 -14 -14 -13 -13
-17 -16 -16 -15 -15 -15 -15 -15 -15 -15 -14 -14 -14 -13 -13 -13 -13 -13 -13 -13 -14 -14 -13 -14 -14 -14 -14 -14 -14 -14 -14 -14 -14 -14 -14 -14 -13 -13 -13 -13 -13 -13 -13 -13 -13 -13 -14 -14 -14 -13 -13 -14 -13 -12
-17 -16 -16 -16 -15 -15 -14 -15 -14 -14 -14 -14 -14 -13 -13 -13 -13 -13 -13 -13 -14 -14 -14 -14 -14 -14 -14 -14 -14 -14 -14 -14 -14 -14 -14 -13 -13 -13 -14 -14 -14 -14 -14 -13 -13 -13 -14 -14 -14 -13 -13 -13 -13 -13
-16 -16 -16 -16 -15 -14 -14 -14 -14 -14 -15 -14 -14 -14 -13 -13 -13 -13 -14 -14 -14 -14 -14 -14 -14 -14 -14 -15 -15 -15 -15 -14 -14 -14 -14 -14 -13 -14 -14 -13 -13 -13 -13 -13 -14 -13 -14 -14 -14 -14 -13 -13 -13 -13
-17 -16 -16 -15 -15 -14 -14 -14 -14 -14 -14 -14 -14 -14 -14 -13 -13 -14 -14 -14 -14 -15 -14 -14 -14 -15 -15 -15 -15 -15 -15 -14 -14 -14 -14 -14 -13 -14 -14 -14 -14 -14 -14 -15 -15 -14 -14 -14 -14 -14 -13 -13 -13 -13
-16 -16 -16 -15 -15 -14 -14 -14 -14 -14 -14 -14 -14 -14 -14 -14 -14 -14 -14 -14 -14 -14 -14 -14 -14 -15 -15 -15 -15 -15 -15 -15 -15 -14 -15 -14 -15 -14 -14 -14 -15 -15 -15 -15 -15 -15 -15 -15 -14 -14 -14 -14 -13 -13
-16 -16 -16 -15 -15 -14 -14 -14 -14 -14 -14 -14 -14 -14 -14 -14 -14 -14 -14 -14 -14 -14 -14 -14 -14 -15 -15 -15 -15 -15 -15 -15 -15 -15 -15 -15 -14 -14 -15 -15 -15 -15 -15 -15 -15 -15 -15 -15 -14 -14 -14 -14 -13 -13
-16 -16 -15 -15 -14 -14 -15 -15 -15 -15 -15 -15 -15 -15 -15 -14 -14 -14 -14 -14 -14 -14 -14 -14 -14 -14 -14 -14 -15 -15 -15 -15 -15 -15 -15 -15 -15 -15 -15 -15 -15 -15 -16 -16 -16 -15 -15 -15 -14 -14 -14 -14 -13 -13
-16 -16 -15 -14 -14 -15 -15 -15 -15 -15 -15 -15 -15 -15 -15 -14 -14 -14 -14 -14 -14 -14 -14 -14 -14 -14 -14 -14 -15 -15 -15 -15 -15 -15 -15 -15 -15 -15 -15 -15 -15 -15 -16 -16 -16 -15 -15 -15 -14 -14 -14 -14 -14 -14
-16 -15 -15 -14 -15 -15 -15 -15 -15 -15 -15 -15 -15 -15 -14 -14 -15 -14 -14 -14 -15 -14 -14 -14 -14 -15 -15 -15 -15 -15 -15 -16 -15 -16 -15 -15 -16 -15 -15 -15 -15 -15 -16 -15 -16 -16 -15 -14 -14 -14 -14 -14 -14 -14
-16 -15 -15 -15 -15 -15 -15 -15 -15 -15 -15 -15 -15 -14 -15 -15 -14 -14 -14 -15 -15 -15 -15 -15 -15 -15 -15 -15 -15 -16 -16 -16 -16 -16 -15 -15 -15 -16 -15 -15 -15 -15 -15 -15 -15 -15 -14 -14 -14 -14 -14 -14 -14 -14
-17 -16 -16 -16 -15 -15 -15 -15 -15 -15 -15 -15 -15 -15 -15 -15 -15 -14 -15 -15 -15 -15 -15 -15 -15 -15 -15 -16 -16 -16 -16 -16 -16 -16 -15 -15 -16 -16 -16 -15 -15 -15 -14 -14 -15 -15 -14 -14 -14 -14 -14 -14 -14 -14
-17 -16 -16 -16 -16 -15 -15 -15 -15 -15 -15 -15 -15 -15 -15 -15 -15 -15 -15 -15 -15 -15 -15 -15 -15 -15 -16 -16 -16 -16 -16 -16 -16 -16 -16 -15 -16 -16 -16 -16 -15 -15 -15 -15 -15 -15 -15 -15 -15 -14 -14 -14 -14 -14
-17 -16 -16 -16 -16 -15 -15 -15 -15 -15 -15 -15 -15 -15 -15 -15 -15 -15 -15 -15 -15 -15 -15 -15 -15 -16 -16 -16 -16 -16 -17 -16 -16 -16 -16 -16 -16 -16 -16 -16 -16 -16 -15 -15 -16 -16 -15 -15 -15 -14 -14 -14 -14 -14
-16 -16 -15 -15 -15 -15 -15 -15 -15 -15 -15 -15 -15 -15 -15 -15 -15 -15 -15 -15 -15 -15 -15 -15 -16 -16 -17 -16 -16 -17 -17 -17 -16 -16 -16 -16 -16 -16 -16 -16 -16 -16 -16 -16 -16 -16 -16 -15 -15 -15 -15 -15 -15 -14
-16 -15 -15 -15 -15 -15 -15 -15 -15 -15 -15 -15 -15 -15 -15 -15 -16 -16 -16 -15 -16 -16 -16 -15 -16 -16 -16 -16 -16 -16 -16 -17 -17 -16 -16 -16 -16 -16 -16 -16 -16 -16 -16 -16 -16 -16 -16 -16 -16 -16 -15 -15 -15 -15
-15 -15 -15 -15 -15 -15 -15 -15 -15 -15 -15 -15 -15 -15 -15 -15 -15 -15 -15 -16 -16 -16 -16 -16 -16 -16 -16 -16 -16 -16 -16 -17 -17 -17 -17 -17 -17 -17 -16 -16 -16 -16 -16 -16 -16 -16 -16 -16 -16 -16 -16 -16 -16 -16
-15 -15 -15 -15 -15 -15 -15 -15 -15 -15 -15 -15 -15 -15 -16 -16 -16 -16 -16 -16 -16 -16 -16 -16 -16 -16 -16 -16 -16 -17 -17 -17 -17 -17 -17 -17 -17 -17 -17 -17 -17 -17 -17 -17 -17 -17 -16 -16 -16 -16 -16 -16 -16 -17
Height
5774 5776 5777 5779 5781 5783 5785 5787 5788 5789 5790 5791 5793 5794 5796 5797 5798 5800 5801 5802 5804 5805 5806 5807 5808 5808 5809 5809 5809 5808 5809 5808 5809 5810 5811 5811 5811 5812 5811 5812 5812 5812 5811 5813 5815 5814 5814 5815 5813 5812 5814 5809 5808 5809
5768 5771 5772 5773 5775 5777 5779 5781 5784 5785 5787 5788 5789 5790 5791 5792 5793 5794 5796 5797 5799 5800 5801 5801 5802 5802 5802 5802 5802 5803 5802 5802 5802 5804 5803 5804 5804 5804 5803 5804 5803 5802 5802 5801 5802 5803 5802 5797 5800 5799 5799 5797 5795 5794
5761 5764 5766 5768 5770 5772 5773 5775 5778 5780 5782 5784 5784 5785 5786 5787 5788 5790 5791 5792 5793 5794 5795 5796 5797 5797 5796 5796 5796 5796 5795 5796 5796 5796 5796 5797 5796 5796 5795 5794 5792 5792 5791 5789 5787 5790 5788 5788 5784 5785 5784 5781 5783 5786
5753 5755 5759 5762 5764 5766 5768 5770 5772 5774 5777 5779 5780 5781 5782 5783 5784 5785 5786 5787 5788 5788 5788 5790 5789 5790 5789 5789 5789 5789 5790 5790 5790 5790 5789 5788 5788 5787 5786 5784 5782 5783 5780 5777 5775 5776 5773 5772 5771 5770 5769 5771 5772 5774
5745 5748 5751 5754 5757 5759 5761 5764 5766 5768 5771 5773 5775 5777 5778 5778 5779 5780 5780 5781 5782 5784 5783 5783 5783 5783 5783 5783 5784 5784 5784 5784 5784 5783 5782 5780 5778 5775 5774 5774 5773 5769 5766 5763 5762 5761 5758 5761 5757 5758 5756 5756 5757 5759
5739 5740 5743 5746 5749 5752 5755 5757 5760 5762 5765 5768 5770 5771 5773 5773 5774 5775 5776 5776 5777 5777 5777 5777 5777 5777 5777 5777 5778 5778 5778 5777 5776 5775 5773 5771 5769 5766 5763 5762 5759 5756 5755 5752 5750 5749 5747 5746 5745 5744 5743 5743 5746 5746
5731 5734 5736 5738 5741 5744 5748 5750 5753 5756 5759 5762 5764 5766 5768 5769 5769 5771 5772 5771 5771 5772 5772 5772 5772 5772 5772 5772 5772 5772 5772 5771 5769 5767 5765 5763 5760 5757 5755 5753 5751 5749 5744 5741 5737 5734 5732 5730 5729 5728 5728 5731 5731 5735
5724 5727 5729 5731 5734 5737 5740 5743 5746 5749 5753 5756 5758 5760 5762 5763 5764 5765 5766 5766 5766 5767 5767 5767 5767 5767 5767 5767 5767 5767 5766 5765 5763 5759 5757 5755 5751 5749 5749 5746 5741 5737 5734 5730 5725 5721 5717 5713 5710 5711 5713 5717 5722 5725
5717 5719 5722 5724 5726 5728 5732 5735 5739 5742 5746 5749 5751 5754 5756 5757 5759 5759 5760 5760 5760 5762 5762 5762 5761 5762 5761 5761 5761 5761 5759 5757 5755 5752 5748 5747 5743 5741 5740 5737 5732 5727 5722 5718 5714 5710 5701 5695 5694 5696 5700 5705 5710 5714
5709 5711 5714 5716 5719 5721 5724 5727 5731 5735 5738 5742 5745 5747 5750 5751 5752 5754 5754 5754 5755 5755 5755 5756 5755 5755 5756 5755 5754 5754 5752 5749 5746 5746 5740 5738 5734 5732 5730 5727 5724 5720 5716 5712 5707 5702 5693 5689 5679 5687 5692 5696 5702 5707
5702 5704 5706 5709 5712 5715 5717 5720 5723 5726 5730 5733 5736 5740 5742 5744 5746 5747 5748 5749 5749 5749 5749 5750 5750 5749 5749 5748 5747 5746 5743 5741 5739 5737 5732 5729 5727 5725 5722 5720 5717 5713 5709 5705 5700 5696 5691 5685 5685 5686 5691 5679 5696 5698
5695 5697 5698 5701 5703 5707 5710 5713 5716 5719 5722 5726 5729 5731 5734 5736 5739 5741 5742 5742 5742 5743 5744 5743 5743 5742 5742 5741 5740 5739 5737 5735 5732 5728 5725 5722 5719 5716 5714 5712 5709 5705 5701 5698 5695 5693 5690 5688 5686 5683 5674 5683 5688 5691
5689 5690 5691 5693 5696 5699 5702 5706 5709 5712 5715 5718 5721 5723 5727 5729 5732 5734 5734 5735 5736 5736 5737 5737 5737 5736 5736 5736 5734 5732 5730 5728 5725 5721 5717 5713 5712 5709 5707 5704 5702 5698 5694 5691 5689 5686 5685 5683 5683 5682 5682 5683 5686 5689
5682 5683 5685 5686 5688 5691 5694 5698 5701 5704 5708 5711 5713 5716 5718 5722 5724 5726 5727 5727 5730 5731 5731 5731 5731 5730 5729 5729 5727 5725 5724 5720 5717 5714 5710 5707 5705 5703 5699 5696 5692 5689 5686 5684 5681 5679 5679 5678 5679 5680 5681 5683 5684 5686
5675 5677 5678 5679 5681 5684 5687 5690 5693 5696 5700 5704 5707 5709 5712 5715 5717 5719 5721 5723 5724 5724 5726 5726 5726 5725 5724 5722 5721 5718 5715 5713 5710 5706 5702 5699 5696 5692 5689 5686 5682 5679 5677 5675 5674 5672 5673 5673 5673 5675 5677 5680 5681 5683
5667 5669 5671 5673 5675 5677 5680 5683 5686 5689 5693 5696 5700 5703 5705 5708 5711 5713 5715 5717 5718 5718 5719 5720 5720 5720 5719 5717 5716 5713 5711 5707 5704 5699 5695 5692 5688 5683 5680 5676 5673 5671 5669 5666 5666 5666 5667 5667 5668 5670 5673 5675 5677 5680
5661 5663 5665 5666 5668 5671 5673 5677 5680 5683 5687 5691 5693 5695 5698 5702 5705 5707 5710 5711 5712 5714 5713 5715 5715 5714 5713 5712 5710 5708 5704 5701 5697 5693 5688 5684 5680 5675 5671 5667 5664 5662 5660 5658 5658 5660 5660 5660 5662 5664 5667 5670 5673 5676
5657 5659 5660 5661 5662 5665 5668 5671 5674 5678 5682 5684 5687 5690 5692 5696 5699 5702 5704 5705 5707 5707 5708 5708 5709 5708 5707 5707 5704 5701 5698 5695 5691 5687 5682 5677 5672 5667 5663 5659 5656 5654 5652 5650 5650 5653 5654 5655 5657 5659 5663 5666 5670 5672
5653 5654 5655 5657 5658 5660 5663 5666 5669 5672 5675 5678 5681 5684 5687 5690 5694 5696 5698 5700 5702 5703 5704 5703 5703 5703 5701 5701 5698 5696 5693 5689 5685 5680 5675 5669 5664 5659 5655 5651 5646 5642 5640 5640 5642 5646 5648 5651 5654 5656 5659 5663 5667 5670
5648 5649 5650 5651 5652 5655 5658 5662 5664 5667 5670 5673 5676 5679 5682 5685 5688 5691 5694 5695 5696 5697 5698 5698 5698 5698 5696 5695 5693 5690 5688 5685 5680 5675 5668 5662 5657 5653 5648 5643 5638 5635 5633 5633 5636 5640 5643 5646 5650 5652 5655 5659 5664 5668
5643 5645 5646 5646 5648 5650 5655 5658 5661 5664 5667 5669 5672 5674 5678 5681 5685 5687 5689 5690 5691 5692 5692 5693 5693 5693 5691 5689 5687 5686 5684 5680 5675 5670 5664 5658 5652 5646 5643 5639 5635 5633 5632 5632 5634 5638 5641 5644 5648 5651 5653 5657 5661 5664
5638 5640 5641 5643 5644 5647 5651 5654 5657 5660 5663 5666 5669 5672 5675 5678 5680 5683 5684 5684 5686 5687 5688 5688 5688 5687 5686 5685 5683 5682 5680 5676 5672 5667 5661 5655 5650 5644 5641 5637 5634 5632 5631 5631 5633 5636 5640 5643 5647 5650 5652 5655 5658 5661
5634 5636 5637 5638 5641 5643 5648 5650 5654 5657 5660 5664 5667 5669 5672 5675 5677 5679 5680 5680 5682 5683 5684 5684 5683 5682 5681 5681 5680 5679 5676 5673 5669 5665 5660 5654 5648 5643 5639 5636 5634 5633 5632 5633 5634 5637 5640 5643 5646 5650 5652 5654 5657 5660
5629 5631 5632 5634 5637 5641 5644 5648 5651 5655 5658 5661 5664 5668 5670 5672 5673 5675 5676 5677 5679 5679 5679 5679 5678 5678 5677 5677 5676 5675 5673 5670 5667 5663 5659 5653 5648 5644 5641 5638 5636 5635 5634 5634 5635 5637 5639 5642 5646 5649 5652 5654 5656 5659
5625 5627 5630 5632 5635 5639 5643 5646 5650 5653 5656 5658 5661 5665 5668 5669 5670 5671 5673 5674 5675 5676 5676 5675 5675 5674 5674 5673 5673 5672 5670 5668 5665 5662 5659 5654 5649 5645 5642 5640 5639 5638 5638 5638 5638 5638 5640 5643 5646 5649 5651 5654 5656 5658
5621 5624 5627 5629 5634 5639 5643 5647 5650 5652 5654 5657 5660 5662 5663 5665 5668 5669 5670 5671 5672 5673 5673 5673 5672 5672 5671 5670 5670 5669 5668 5667 5664 5661 5658 5654 5650 5645 5642 5640 5640 5639 5639 5640 5640 5641 5642 5644 5646 5649 5651 5653 5655 5657
5620 5622 5625 5630 5634 5638 5642 5645 5648 5651 5653 5656 5658 5661 5663 5664 5665 5667 5668 5669 5670 5670 5671 5671 5670 5669 5668 5667 5667 5666 5666 5665 5664 5662 5659 5656 5652 5648 5643 5641 5640 5640 5641 5641 5641 5643 5644 5647 5649 5650 5652 5653 5655 5657
5620 5623 5627 5631 5635 5638 5642 5645 5648 5650 5652 5655 5658 5660 5661 5663 5665 5666 5667 5667 5667 5668 5668 5668 5667 5667 5666 5665 5664 5664 5664 5663 5662 5661 5659 5657 5655 5652 5649 5645 5643 5642 5642 5642 5642 5644 5645 5646 5647 5649 5650 5652 5653 5654
5623 5626 5629 5632 5636 5640 5643 5646 5648 5650 5652 5654 5657 5658 5660 5662 5664 5664 5664 5665 5665 5666 5666 5666 5665 5665 5664 5664 5663 5663 5663 5662 5662 5661 5659 5658 5656 5655 5653 5651 5649 5648 5646 5645 5645 5646 5646 5646 5645 5645 5647 5647 5649 5650
5626 5628 5631 5634 5637 5640 5643 5645 5648 5650 5652 5653 5655 5656 5658 5659 5660 5660 5661 5662 5663 5663 5664 5664 5663 5663 5662 5662 5662 5662 5662 5661 5661 5660 5660 5658 5657 5656 5655 5655 5654 5652 5651 5651 5650 5649 5649 5648 5647 5647 5647 5646 5647 5646
5628 5630 5633 5635 5638 5641 5643 5645 5646 5649 5650 5652 5653 5654 5655 5656 5656 5657 5658 5659 5660 5661 5661 5661 5661 5661 5661 5661 5661 5661 5661 5661 5660 5660 5660 5659 5658 5657 5657 5656 5655 5654 5653 5652 5652 5651 5650 5650 5649 5648 5647 5647 5647 5648
5631 5633 5636 5638 5640 5642 5643 5644 5646 5648 5649 5650 5651 5651 5651 5651 5652 5653 5655 5657 5658 5659 5659 5659 5659 5659 5660 5660 5661 5661 5661 5661 5660 5660 5659 5659 5659 5658 5658 5657 5656 5655 5654 5653 5652 5652 5651 5650 5649 5647 5647 5646 5646 5646
5635 5636 5638 5639 5640 5642 5643 5644 5644 5646 5647 5647 5647 5648 5648 5649 5650 5652 5653 5654 5655 5656 5657 5657 5657 5658 5659 5659 5660 5661 5661 5661 5661 5660 5660 5659 5658 5658 5658 5657 5656 5655 5655 5654 5653 5652 5651 5650 5649 5648 5647 5646 5645 5645
Wind_Speed
18 19 19 19 19 19 17 16 14 13 12 12 11 11 12 13 14 15 16 15 15 16 17 18 18 21 22 24 24 21 23 24 23 23 23 23 25 24 27 27 26 29 30 26 25 27 30 27 30 32 28 35 36 37
22 22 19 19 20 20 19 18 16 15 14 14 13 14 14 14 15 14 15 15 13 14 14 17 17 18 18 19 23 21 25 23 25 23 25 24 25 27 27 29 29 31 31 34 34 31 34 38 36 38 41 43 39 44
24 23 23 23 21 20 20 19 18 17 16 16 15 15 14 14 13 13 14 15 17 17 17 18 18 19 20 21 23 23 22 21 20 20 22 22 25 26 28 31 32 33 35 38 41 36 38 41 47 49 50 51 48 44
23 27 26 24 24 24 23 21 20 19 18 18 16 15 15 15 15 15 15 16 16 16 18 19 20 21 21 19 18 19 18 19 19 20 22 25 28 30 32 34 37 35 38 41 42 40 40 41 44 46 49 49 47 43
21 24 27 28 27 25 24 24 23 21 19 18 18 17 17 17 17 16 16 16 16 16 17 17 17 17 17 16 16 16 17 18 19 22 24 27 30 34 34 34 35 36 38 40 41 42 45 43 45 45 47 47 46 45
20 22 25 26 29 27 26 24 22 20 20 19 18 17 17 16 15 14 14 15 15 15 15 16 16 16 16 15 15 16 17 19 22 24 26 28 30 34 36 34 30 29 27 30 34 35 39 43 45 46 48 48 42 44
20 22 20 22 23 27 28 26 25 23 22 19 18 17 16 15 14 13 13 14 14 15 15 16 16 16 16 16 16 17 19 22 24 26 26 28 31 31 27 24 27 30 35 36 40 43 44 46 46 47 50 46 45 38
22 21 22 26 27 25 26 28 25 24 23 21 20 19 19 18 17 16 15 15 15 16 15 16 17 16 17 17 18 18 20 22 25 26 27 24 25 24 23 26 30 28 31 34 29 32 37 39 42 47 47 46 41 37
23 23 23 23 23 26 28 27 29 26 25 23 22 20 18 19 18 17 16 17 16 16 17 17 18 19 18 19 19 19 22 25 24 26 27 25 25 25 24 25 30 26 31 30 25 32 38 34 32 30 30 35 40 36
23 25 25 23 21 21 24 27 27 29 29 27 26 23 21 19 18 18 16 16 17 18 18 18 19 22 19 20 21 22 22 24 25 25 29 27 28 27 26 28 31 21 27 27 23 25 28 22 9 13 19 24 30 30
23 24 25 25 24 23 22 22 24 25 26 28 29 27 25 24 22 20 20 19 18 18 18 19 19 21 19 21 22 22 24 25 27 27 28 26 28 25 27 26 27 25 30 22 22 22 18 14 11 13 14 12 26 23
24 23 24 25 25 24 23 23 22 23 24 25 26 26 25 25 24 22 21 22 21 20 18 20 19 20 20 22 23 22 24 26 29 27 27 28 27 25 24 23 23 24 27 24 20 20 18 14 13 11 7 18 19 22
25 21 22 23 24 24 25 26 25 24 24 25 25 24 24 25 25 22 20 21 21 20 19 18 18 20 21 21 23 23 24 26 28 28 28 27 26 23 24 24 23 25 25 25 23 20 19 17 17 21 14 15 14 13
23 22 20 21 22 24 25 26 27 26 24 24 23 22 25 24 22 20 19 21 18 19 18 18 19 19 21 21 22 22 23 26 26 27 27 28 27 26 27 29 29 28 24 23 23 24 22 19 18 12 11 15 17 16
23 21 20 21 21 22 23 25 26 27 25 25 25 23 22 23 23 21 20 19 18 18 17 17 18 19 18 19 20 22 21 25 28 28 30 29 29 28 29 29 28 27 24 23 21 21 19 20 17 16 14 18 18 15
18 19 20 20 19 20 22 23 24 25 26 24 23 23 21 22 23 22 19 18 19 18 16 16 17 16 16 18 17 20 24 26 27 28 31 32 31 31 31 33 31 22 20 26 22 21 20 20 17 18 17 17 17 15
15 16 17 19 19 19 20 23 24 23 24 20 22 23 22 23 23 21 19 17 17 15 15 15 17 19 20 18 18 20 23 24 25 29 31 31 29 30 28 25 23 20 20 22 22 19 17 18 23 19 17 17 17 16
14 14 15 17 18 19 20 20 22 22 20 22 22 22 22 22 21 19 18 17 16 17 15 16 15 14 16 17 18 20 19 22 24 27 28 28 28 25 21 22 24 23 22 21 22 18 16 16 21 19 16 19 17 13
13 13 15 17 18 19 20 19 20 17 19 21 20 20 21 20 19 19 17 16 15 14 14 16 16 15 17 18 19 19 18 19 25 29 27 25 23 23 23 27 29 26 24 22 22 19 14 18 20 18 17 17 18 15
14 14 14 14 17 20 20 17 18 16 17 18 18 18 19 18 17 17 15 13 12 11 12 15 15 15 17 18 18 16 18 25 26 27 28 24 23 21 24 22 21 18 13 15 16 16 14 15 16 14 19 16 15 14
15 15 13 13 14 17 19 16 16 17 16 18 18 18 17 16 13 14 14 14 11 12 13 14 14 16 17 18 16 15 18 22 23 24 25 26 26 22 19 17 12 7 5 8 8 11 13 12 15 13 15 18 17 16
16 16 14 14 15 15 18 18 19 18 16 18 17 16 19 14 12 14 15 13 12 12 12 13 14 15 15 14 10 12 16 19 21 21 24 23 16 13 15 12 8 5 3 4 10 15 14 12 15 13 12 16 20 19
17 16 15 14 15 15 18 19 18 16 17 18 17 14 15 15 16 14 11 10 12 12 11 12 13 13 13 12 11 12 13 15 17 18 22 19 15 12 13 12 8 4 1 7 12 14 13 13 14 14 12 14 15 17
17 15 14 13 16 16 17 17 16 15 17 16 16 16 11 11 11 10 12 12 11 10 10 11 11 11 11 10 9 10 11 14 16 17 20 20 13 11 10 12 7 4 5 4 13 16 12 13 14 15 13 13 13 13
14 14 14 15 17 18 17 15 16 15 16 16 17 19 13 12 11 11 11 10 9 9 7 7 8 7 6 6 7 8 10 12 14 17 17 18 19 11 5 8 5 6 6 4 8 11 10 11 14 17 15 13 13 12
13 14 16 16 21 21 18 15 13 13 14 13 14 13 15 13 11 11 10 10 10 9 9 9 8 8 8 7 7 8 9 9 11 14 15 16 18 18 5 1 3 5 5 6 7 6 9 11 11 13 13 13 13 13
12 14 20 23 23 21 19 17 12 11 12 13 13 12 11 10 11 10 10 11 10 9 8 5 8 10 9 8 6 9 10 8 8 10 13 14 15 19 17 9 8 5 6 6 7 7 7 7 7 8 9 10 11 11
13 17 21 22 21 20 20 16 11 11 11 13 11 9 9 9 7 8 9 11 10 9 8 8 7 7 8 7 7 6 6 6 7 7 9 11 12 14 17 16 11 8 6 2 4 6 7 5 8 8 9 11 13 14
14 16 16 17 18 18 18 14 10 12 13 11 10 8 10 10 10 14 11 10 9 8 7 6 4 5 6 6 5 4 5 5 3 3 2 6 9 10 11 13 16 17 17 16 17 14 8 5 4 4 9 8 12 12
12 14 14 13 16 17 15 16 14 10 8 10 11 12 12 12 12 11 11 10 9 8 6 5 3 3 4 5 3 2 3 3 2 2 3 5 8 8 8 9 10 11 12 13 13 12 10 9 7 6 6 5 8 16
10 13 13 14 13 12 11 13 14 14 10 9 9 10 9 10 12 11 11 11 12 12 8 6 4 5 5 4 3 3 2 3 4 4 2 2 4 5 6 6 7 8 8 8 9 9 8 7 7 6 3 1 2 3
9 11 10 8 7 7 8 8 8 7 6 7 8 10 12 13 13 13 12 9 8 6 5 5 5 6 6 6 4 4 4 5 4 4 4 2 2 2 3 5 5 6 7 7 6 7 7 8 9 9 6 4 4 6
14 7 6 4 4 5 5 5 7 7 7 8 8 9 9 8 9 13 14 12 9 9 8 7 8 8 7 6 6 4 3 4 4 3 3 3 2 1 4 6 6 6 7 6 6 7 8 9 9 8 6 4 3 2
Wind_Direction
230 228 226 229 231 234 238 242 241 239 232 226 225 231 238 244 247 251 253 251 255 252 242 242 247 255 254 256 259 264 260 264 269 265 265 264 266 265 265 267 267 267 267 263 271 271 277 265 255 256 251 255 256 250
232 233 230 229 233 234 235 238 239 237 233 233 235 240 245 247 249 247 245 242 252 256 243 248 259 259 259 259 258 263 264 263 262 264 262 264 266 268 269 268 268 267 264 263 252 242 247 258 260 257 256 260 252 254
229 233 234 233 232 232 234 234 234 234 237 242 246 245 239 238 241 246 249 249 254 256 253 252 255 261 264 262 261 263 264 266 264 265 267 269 269 270 273 273 270 267 270 268 268 266 260 255 255 253 257 255 257 262
243 235 234 235 235 235 233 233 234 238 245 247 241 239 240 240 240 242 245 249 251 255 257 258 259 260 260 260 260 261 262 265 268 270 274 276 278 277 274 275 275 277 272 273 270 269 266 261 262 262 263 269 267 262
245 243 244 232 234 235 236 235 237 238 239 238 241 243 243 245 246 246 247 248 252 256 261 259 257 257 258 257 257 258 263 267 271 275 277 279 280 280 283 283 285 279 277 273 273 270 268 269 270 272 269 265 264 264
254 239 241 244 235 235 236 235 232 231 233 236 241 243 243 243 245 248 249 247 248 254 258 260 259 260 261 259 259 263 269 277 281 283 285 285 285 288 292 292 288 288 289 284 279 276 272 268 269 269 267 267 267 265
244 240 234 234 237 236 233 234 234 234 233 229 232 237 239 240 243 249 257 258 255 256 259 258 259 261 259 258 260 266 275 280 282 286 286 287 287 290 293 293 296 291 285 284 280 276 272 269 264 263 261 261 258 262
246 241 242 243 248 242 235 230 231 231 231 231 237 241 242 244 247 252 256 261 261 259 263 263 261 260 260 258 261 271 278 282 286 287 289 289 288 290 292 298 299 296 283 289 287 292 292 281 268 262 263 255 256 256
245 245 241 242 244 243 237 233 230 230 232 236 236 240 246 246 247 251 253 256 259 257 259 266 264 263 261 262 267 273 282 291 294 295 294 290 289 294 296 302 310 301 307 288 291 297 292 288 268 256 258 252 247 246
246 241 243 240 244 238 235 233 233 235 234 235 238 242 246 249 247 249 254 258 262 259 257 261 262 263 265 266 270 279 286 295 298 299 294 292 289 293 295 304 310 284 311 320 300 307 303 283 327 234 258 244 238 241
251 244 240 240 236 239 237 233 234 234 233 236 239 243 249 251 249 248 252 257 262 261 260 264 265 263 264 271 277 282 290 296 303 304 299 299 295 291 293 299 306 297 300 302 309 304 313 294 273 258 235 212 239 241
249 245 238 238 237 235 235 235 236 236 235 236 239 242 245 245 247 251 255 254 258 260 258 263 265 264 266 271 278 284 289 296 305 303 301 303 300 297 297 299 299 303 307 307 311 294 290 282 244 236 224 215 220 232
238 244 240 238 238 235 235 235 234 236 238 238 238 241 244 245 244 249 255 252 254 257 259 266 266 266 269 274 280 286 291 297 303 305 301 297 301 295 291 291 293 300 295 291 291 293 286 272 258 237 232 227 220 224
240 245 241 238 237 235 235 234 234 233 234 237 236 237 241 242 239 242 249 252 253 257 264 270 272 273 276 278 284 288 293 300 303 306 300 300 299 297 292 290 291 296 287 281 278 279 279 273 267 264 228 225 220 220
238 243 239 239 237 236 235 233 233 231 231 232 234 236 236 235 233 237 247 254 251 254 262 270 276 277 281 280 289 297 302 307 307 306 303 305 305 298 298 294 296 291 281 281 272 262 268 258 239 230 224 224 222 231
239 245 241 240 238 237 235 231 231 231 229 228 230 232 231 229 230 235 244 252 250 251 259 272 279 281 276 283 292 293 301 302 303 305 305 305 303 298 296 293 294 291 280 281 274 262 257 249 226 220 213 219 223 228
241 244 242 241 238 237 233 229 228 227 225 223 228 229 228 229 231 237 247 253 247 249 256 257 257 267 280 286 290 298 300 304 305 304 302 303 304 302 300 297 296 292 286 276 268 265 253 251 231 228 215 211 224 225
243 243 244 244 242 234 234 234 231 227 223 222 226 224 226 228 231 239 252 242 236 244 259 262 274 276 283 291 298 306 306 304 307 308 303 300 301 305 297 297 295 293 293 275 256 252 255 228 218 214 222 215 219 224
246 249 250 244 240 236 233 233 229 222 219 221 223 222 223 224 231 237 234 234 244 252 257 267 269 272 281 292 300 307 301 299 307 318 315 310 304 303 301 305 303 296 290 259 242 238 238 219 216 219 210 211 212 206
248 253 253 252 237 229 226 227 219 214 218 215 215 215 216 217 221 227 235 240 250 254 250 259 268 273 282 294 299 297 294 302 312 323 325 319 315 313 319 313 309 307 286 240 236 228 223 218 213 217 203 201 206 210
250 255 256 255 237 225 219 225 220 218 219 215 217 215 205 205 216 228 236 241 242 246 249 258 265 278 287 293 291 287 303 315 325 328 332 326 325 327 326 322 317 315 277 245 238 203 192 204 211 202 202 202 203 209
252 255 259 251 230 218 213 210 214 220 217 214 211 201 196 200 219 239 236 231 245 252 252 260 269 274 283 292 292 305 314 320 330 335 336 334 331 336 347 345 340 328 291 214 184 187 186 173 190 190 192 199 203 204
250 253 255 242 227 218 211 208 208 213 206 206 205 205 207 217 231 229 228 235 237 249 258 264 268 279 281 280 297 312 315 324 336 338 342 345 348 355 15 3 356 360 155 170 169 172 184 171 180 177 181 188 195 202
252 253 237 225 216 211 209 201 207 205 207 210 204 200 213 232 217 213 233 237 248 254 260 272 278 291 287 280 298 306 317 332 328 334 341 352 352 18 16 14 14 58 55 155 174 164 177 175 177 172 174 181 183 191
251 233 219 212 201 193 190 194 199 202 208 214 205 202 209 204 207 222 233 240 246 247 257 278 287 293 290 288 296 306 325 332 327 335 341 349 1 346 61 55 47 94 108 180 174 168 181 186 188 183 185 187 192 195
220 210 198 189 182 178 180 186 187 184 181 188 194 209 195 200 215 226 235 243 249 251 263 273 277 277 279 287 293 306 317 329 328 336 349 357 7 17 43 194 93 99 127 133 149 165 176 183 188 195 201 204 206 205
195 190 178 170 176 174 169 163 173 188 189 193 193 186 194 208 218 228 237 243 250 255 266 285 303 293 277 271 272 297 305 316 314 344 353 6 19 23 27 67 94 101 100 117 134 146 153 165 183 187 197 215 220 221
175 170 170 172 173 171 168 166 161 162 165 176 174 198 211 210 215 235 242 249 253 260 262 299 319 304 277 268 283 292 302 312 312 319 348 7 28 44 44 51 81 89 107 137 205 191 171 188 220 231 236 234 235 233
153 161 166 169 170 172 176 177 177 166 163 163 176 212 219 211 211 233 254 249 251 257 281 304 313 298 282 271 279 301 317 327 322 330 2 39 40 46 53 53 57 61 62 58 63 75 88 74 58 168 215 239 234 235
157 157 169 182 186 192 196 194 185 180 182 195 210 221 229 242 260 248 238 234 239 257 295 310 322 255 249 255 247 261 301 320 337 10 53 58 51 52 57 58 60 60 55 53 48 48 56 63 70 65 75 151 204 233
142 146 152 154 160 172 183 192 203 210 203 216 232 247 250 237 230 231 232 237 245 258 280 292 278 211 196 211 194 210 235 261 295 313 342 65 83 82 68 50 34 29 29 27 25 26 27 28 29 28 18 313 218 190
121 137 136 142 160 177 188 192 179 179 205 237 252 253 249 242 235 230 226 231 223 237 265 278 250 216 203 212 218 232 236 237 252 284 318 344 151 126 48 26 29 33 28 27 26 25 19 8 356 349 344 322 275 247
122 96 123 84 126 144 177 201 209 217 244 252 251 251 246 255 244 225 227 229 243 246 244 245 226 210 216 237 242 250 264 267 249 233 255 256 230 323 17 25 28 28 26 29 29 18 12 15 14 16 11 357 333 299